Location: Opava
(49.9500°N, 17.9170°E)
Time: 02:42:54
(UTC+01:00)

ISS - Pass Details

Date: 03 October 2020
Orbit: 417 x 420 km, 51.6° (Epoch: 25 October)

Event Time Altitude Azimuth Distance (km) Brightness Sun altitude
Rises 21:08:47 0° 279° (W) 2,369 1.2 -26.9°
Reaches altitude 10° 21:12:09 10° 243° (WSW) 1,500 -0.6 -27.4°
Enters shadow 21:12:12 10° 243° (WSW) 1,494 -0.6 -27.4°
